FW8063 Weather Reports


time (UTC)temp
C
wind
direction
speed
KPH
gust
KPH
rain 1hr
cm
rain 24hr
cm
rain mn
cm
humidity
%
barometer
mb
20260505180046 14 355 0.0 6.4 0.00 0.00 0.00 80 1016.7
20260505174547 13 319 1.6 4.8 0.00 0.00 0.00 82 1016.6
20260505173042 13 316 1.6 4.8 0.00 0.00 0.00 83 1016.5
20260505171540 13 350 3.2 6.4 0.00 0.00 0.00 84 1016.6
20260505170039 13 334 1.6 8.0 0.00 0.00 0.00 85 1016.5
20260505164537 13 244 3.2 9.7 0.00 0.00 0.00 86 1016.4
20260505163034 12 258 0.0 4.8 0.00 0.00 0.00 87 1016.3
20260505161541 12 298 1.6 8.0 0.00 0.00 0.00 87 1016.2
20260505153030 12 224 1.6 6.4 0.00 0.00 0.00 88 1016.2
20260505151633 12 243 1.6 8.0 0.00 0.00 0.00 88 1016.2
20260505124517 11 242 3.2 8.0 0.00 0.00 0.00 88 1015.2
20260505123014 11 248 6.4 11.3 0.00 0.00 0.00 88 1015.1
20260505121528 11 221 3.2 6.4 0.00 0.00 0.00 88 1015.2
20260505120011 11 203 3.2 8.0 0.00 0.00 0.00 88 1015.0
20260505114510 11 209 3.2 6.4 0.00 0.00 0.00 88 1015.1
20260505113012 11 203 4.8 9.7 0.00 0.00 0.00 89 1014.9
20260505111507 12 175 3.2 6.4 0.00 0.00 0.00 89 1014.8
20260505101601 11 209 3.2 6.4 0.00 0.00 0.00 89 1014.4
20260505100100 11 184 1.6 8.0 0.00 0.00 0.00 89 1014.4
20260505094625 11 177 1.6 6.4 0.00 0.00 0.00 89 1014.3
20260505093059 11 194 3.2 8.0 0.00 0.00 0.00 89 1014.2
20260505091605 11 198 4.8 8.0 0.00 0.00 0.00 89 1014.3
20260505090104 11 213 3.2 9.7 0.00 0.00 0.00 89 1014.2
20260505084556 11 195 4.8 8.0 0.00 0.00 0.00 89 1014.3
20260505083100 11 187 3.2 8.0 0.00 0.00 0.00 88 1014.2
20260505081557 11 207 3.2 6.4 0.00 0.00 0.00 88 1014.0
20260505080051 11 186 3.2 6.4 0.00 0.00 0.00 87 1014.0
20260505074546 11 201 3.2 6.4 0.00 0.00 0.00 87 1013.9
20260505073045 11 201 1.6 6.4 0.00 0.00 0.00 86 1013.9
20260505071548 11 185 3.2 6.4 0.00 0.00 0.00 85 1013.7
20260505070039 11 221 1.6 6.4 0.00 0.00 0.00 84 1013.6
20260505064541 12 221 4.8 8.0 0.00 0.00 0.00 84 1013.4
20260505063039 12 218 3.2 8.0 0.00 0.00 0.00 83 1013.4
20260505061538 12 232 6.4 11.3 0.00 0.00 0.00 83 1013.4
20260505060039 12 248 6.4 14.5 0.00 0.00 0.00 82 1013.4
20260505054541 13 222 8.0 16.1 0.00 0.00 0.00 82 1013.3
20260505053036 13 238 11.3 20.9 0.00 0.00 0.00 81 1013.1
20260505051535 13 231 11.3 17.7 0.00 0.00 0.00 81 1013.1
20260505041533 13 263 12.9 17.7 0.00 0.00 0.00 78 1012.3
20260505040133 14 270 14.5 22.5 0.00 0.00 0.00 76 1011.8
20260505034533 14 263 14.5 22.5 0.00 0.00 0.00 76 1011.7
20260505033038 15 272 17.7 27.4 0.00 0.00 0.00 75 1011.4
20260505031543 15 267 22.5 30.6 0.00 0.00 0.00 73 1011.2
20260505030032 16 275 24.1 30.6 0.00 0.00 0.00 72 1010.9
20260505024545 17 267 16.1 22.5 0.00 0.00 0.00 70 1010.5
20260505023040 18 274 22.5 27.4 0.00 0.00 0.00 68 1010.4
20260505021530 19 277 14.5 24.1 0.00 0.00 0.00 68 1010.4
20260505020029 20 279 16.1 22.5 0.00 0.00 0.00 66 1010.2
20260505014535 20 292 16.1 24.1 0.00 0.00 0.00 65 1010.4
20260505013027 22 292 16.1 20.9 0.00 0.00 0.00 60 1010.3
20260505011525 22 259 11.3 17.7 0.00 0.00 0.00 61 1010.4
20260505010024 22 221 8.0 14.5 0.00 0.00 0.00 61 1010.5
20260505004522 22 164 8.0 14.5 0.00 0.00 0.00 61 1010.7
20260505003019 22 157 8.0 19.3 0.00 0.00 0.00 64 1010.5
20260505001517 21 162 8.0 17.7 0.00 0.00 0.00 65 1010.6
20260505000017 21 163 9.7 16.1 0.00 0.00 0.00 64 1010.8
20260504234513 21 136 8.0 19.3 0.00 0.00 0.00 65 1011.0
20260504233012 21 159 11.3 24.1 0.00 0.00 0.00 64 1011.1
20260504231510 21 130 9.7 17.7 0.00 0.00 0.00 65 1011.1
20260504230009 20 128 8.0 19.3 0.00 0.00 0.00 65 1011.4
20260504224508 21 166 11.3 20.9 0.00 0.00 0.00 65 1011.7
20260504223006 20 217 9.7 19.3 0.00 0.00 0.00 66 1011.9
20260504221504 20 232 8.0 17.7 0.00 0.00 0.00 67 1012.1
20260504220002 20 189 9.7 20.9 0.00 0.00 0.00 66 1012.2
20260504214606 20 130 6.4 17.7 0.00 0.00 0.00 67 1012.4
20260504213058 19 193 8.0 19.3 0.00 0.00 0.00 67 1012.5
20260504211555 19 181 8.0 22.5 0.00 0.00 0.00 69 1012.6
20260504204608 18 160 11.3 17.7 0.00 0.00 0.00 70 1013.1
20260504203113 17 123 6.4 19.3 0.00 0.00 0.00 71 1013.2
20260504201548 17 213 8.0 16.1 0.00 0.00 0.00 71 1013.3
20260504200049 17 221 8.0 19.3 0.00 0.00 0.00 73 1013.4
20260504194548 16 177 9.7 20.9 0.00 0.00 0.00 74 1013.4
20260504193048 16 171 6.4 17.7 0.00 0.00 0.00 76 1013.4
20260504191550 16 181 9.7 19.3 0.00 0.00 0.00 77 1013.5
20260504190050 15 164 9.7 19.3 0.00 0.00 0.00 78 1013.7
20260504184544 15 157 8.0 16.1 0.00 0.00 0.00 78 1013.9
20260504183043 15 198 9.7 16.1 0.00 0.00 0.00 79 1013.7
20260504181542 14 172 9.7 24.1 0.00 0.00 0.00 79 1013.7